This is the latest recevied weather packets stored in our database for station/object W1BKW. If no packets are shown the sender has not sent any weather packets the latest 10 day(s).
| Time | Temp. | Humidity | Pressure | Rain* | Wind** | Luminosity | Snow |
|---|---|---|---|---|---|---|---|
| 1777987125 | 16.67° C | 59% | 1005.3 hPa | 0 mm | - | 491 W/m² | - |
| 1777986224 | 16.11° C | 60% | 1005.2 hPa | 0 mm | - | 534 W/m² | - |
| 1777985320 | 15.56° C | 63% | 1005.3 hPa | 0 mm | - | 448 W/m² | - |
| 1777984416 | 15° C | 64% | 1005.4 hPa | 0 mm | - | 131 W/m² | - |
| 1777983512 | 14.44° C | 64% | 1005.4 hPa | 0 mm | - | 134 W/m² | - |
| 1777982607 | 13.89° C | 66% | 1006 hPa | 0 mm | - | 191 W/m² | - |
| 1777981706 | 13.33° C | 68% | 1006 hPa | 0 mm | - | 111 W/m² | - |
| 1777980801 | 13.33° C | 69% | 1005.8 hPa | 0 mm | - | 60 W/m² | - |
| 1777979901 | 13.33° C | 70% | 1005.7 hPa | 0 mm | - | 59 W/m² | - |
| 1777978997 | 12.22° C | 74% | 1005.9 hPa | 0 mm | - | 39 W/m² | - |
| 1777978097 | 12.78° C | 70% | 1005.7 hPa | 0 mm | - | 22 W/m² | - |
| 1777977194 | 12.78° C | 70% | 1005.5 hPa | 0 mm | - | 19 W/m² | - |
| 1777976295 | 12.22° C | 72% | 1005.9 hPa | 0 mm | - | 17 W/m² | - |
| 1777975389 | 10.56° C | 79% | 1005.9 hPa | 0 mm | - | 11 W/m² | - |
| 1777974490 | 10.56° C | 77% | 1005.3 hPa | 0 mm | - | 6 W/m² | - |
| 1777973586 | 10° C | 82% | 1005.7 hPa | 0 mm | - | 0 W/m² | - |
| 1777972684 | 9.44° C | 82% | 1005.8 hPa | 0 mm | - | 0 W/m² | - |
| 1777971783 | 9.44° C | 85% | 1005.7 hPa | 0 mm | - | 0 W/m² | - |
| 1777970881 | 9.44° C | 84% | 1006 hPa | 0 mm | - | 0 W/m² | - |
| 1777969979 | 10.56° C | 81% | 1005.9 hPa | 0 mm | - | 0 W/m² | - |
| 1777969074 | 10° C | 79% | 1006.1 hPa | 0 mm | - | 0 W/m² | - |
| 1777968170 | 9.44° C | 83% | 1006 hPa | 0 mm | - | 0 W/m² | - |
| 1777967266 | 10° C | 83% | 1006.1 hPa | 0 mm | - | 0 W/m² | - |
| 1777966365 | 11.11° C | 73% | 1006 hPa | 0 mm | - | 0 W/m² | - |
| 1777965465 | 12.22° C | 69% | 1006.2 hPa | 0 mm | - | 0 W/m² | - |
* Rain latest hour (hover to see other rain measurements)
** Current wind speed in m/s (hover to see current wind gust speed)